星链-4151 (STARLINK-4151 )

导读

STARLINK-4151是美国星链计划中的一颗卫星,于2022年7月7日发射升空,属于SpaceX公司打造的低轨卫星互联网星座组网卫星。星链星座旨在为全球提供高速低延迟的宽带互联网服务,该卫星入轨后承担着网络信号传输任务,是星链全球覆盖网络建设过程中重要的组成部分,推进了美国低轨卫星通信基础设施的部署进程。

基本信息
目录编号:
53034
目录名称:
STARLINK-4151
国际标识:
2022-076BA
轨道中心:
EARTH
卫星名称:
星链-4151
卫星全名:
星链-4151 (STARLINK-4151 )
卫星状态:
在轨 (已飞行1520 天)
发射日期:
2022-07-07 UTC
国别 :
美国 (US)
星等 :
--
轨道信息
数据来源 国际轨道数据
星历时间: 2026-09-04T00:23:22+0800
18小时前
查看轨道信息
半长轴: 6848.894km
偏心率: 0.0001211
轨道倾角: 53.162°
近地点辐角 82.261°
升交点赤经 346.123°
平近点角 277.853°
近地点: 469.927km
远地点: 471.587km
周期: 94.014分钟
每日圈数: 15.316945
详细信息
固有亮度:
5
最大亮度:
2.5
卫星平台:
Starlink v1.5
覆盖范围:
全球
运营商:
太空探索技术公司
运营商所在国:
美国
制造商(研发单位):
太空探索技术公司
制造商所在国:
美国
使用方式:
暂无
卫星简介
星链(Starlink)计划是由太空探索技术公司(SpaceX)提出的一个巨型低轨卫星互联网星座项目,计划在2019年至2024年间在太空搭建由约1.2万颗卫星组成的“星链”网络,其中1584颗将部署在地球上空550千米处的近地轨道,并从2020年开始工作。该卫星仍在工作。
2D轨道图
3D轨道图
轨道高度分析图
轨道倾角分析图
轨道综合分析图
查看轨道综合分析图
交会数据列表
事件ID 空间交会对象 最接近时刻(TCA) 交会距离 交会风险概率(CRP) 交会风险指数(CRI) 操作
CDM_260905-100805-303406-839321
2026-09-05T
10:08:36+0000
2.020 km
极远距离
1.931746E-6 低风险 0.41